Weather History for KPRC - December, 2012

Change the Weather History Date:

Sunday, December 16, 2012

  Actual Average Record
Temperature  
Mean Temperature 30 °F 38 °F  
Max Temperature 39 °F 51 °F 70 °F (1980)
Min Temperature 21 °F 25 °F 4 °F (1967)
Degree Days  
Heating Degree Days 35    
Month to date heating degree days  
Since 1 July heating degree days  
Cooling Degree Days 0    
Month to date cooling degree days  
Year to date cooling degree days  
Moisture  
Dew Point 26 °F    
Average Humidity 86    
Maximum Humidity 100    
Minimum Humidity 53    
Precipitation  
Precipitation 0.01 in 0.03 in 0.52 in (2010)
Month to date precipitation 0.48  
Year to date precipitation 13.49  
Sea Level Pressure  
Sea Level Pressure 30.07 in    
Wind  
Wind Speed 2 mph (SSW)    
Max Wind Speed 6 mph    
Max Gust Speed -    
Visibility 8 miles    
Events Fog , Snow    
T = Trace of Precipitation, MM = Missing Value Source: NWS Daily Summary

Daily Weather History Graph

Daily Weather History Graph

Search for Another Location

Airport or City:

Trip Planner

Search our weather history database for the weather conditions in past years. The results will help you decide how hot, cold, wet, or windy it might be!

Date:

Astronomy

Dec. 16, 2012 Rise Set
Actual Time 7:30 AM MST 5:20 PM MST
Civil Twilight 7:02 AM MST 5:48 PM MST
Nautical Twilight 6:30 AM MST 6:20 PM MST
Astronomical Twilight 6:00 AM MST 6:51 PM MST
Moon 10:13 AM MST (12/16) 9:31 PM MST (12/16)
Length of Visible Light 10h 46m
Length of Day
9h 50m
Waxing Crescent, 16% of the Moon is Illuminated
Dec 16
Waxing Crescent
Dec 19
First Quarter
Dec 28
Full
Jan 4
Last Quarter
Jan 11
New

Hourly Weather History & Observations

Time (MST) Temp. Windchill Dew Point Humidity Pressure Visibility Wind Dir Wind Speed Gust Speed Precip Events Conditions
12:53 AM 24.1 °F - 21.0 °F 88% 29.99 in 9.0 mi Calm Calm - 0.00 in Snow Light Snow
1:53 AM 25.0 °F 18.1 °F 21.9 °F 88% 29.99 in 9.0 mi SSW 5.8 mph - 0.00 in Snow Light Snow
2:32 AM 26.6 °F 21.2 °F 23.0 °F 86% 29.99 in 9.0 mi South 4.6 mph - 0.00 in Snow Light Snow
2:53 AM 26.1 °F 21.9 °F 23.0 °F 88% 30.00 in 9.0 mi SW 3.5 mph - 0.00 in   Overcast
3:05 AM 26.6 °F 22.6 °F 23.0 °F 86% 30.00 in 9.0 mi SSW 3.5 mph - 0.00 in Snow Light Snow
3:13 AM 26.6 °F - 24.8 °F 93% 30.00 in 9.0 mi Calm Calm - 0.00 in Snow Light Snow
3:53 AM 27.0 °F - 25.0 °F 92% 30.01 in 9.0 mi Calm Calm - 0.00 in Snow Light Snow
4:53 AM 28.0 °F 21.7 °F 26.1 °F 92% 30.00 in 1.8 mi South 5.8 mph - 0.00 in Snow Light Snow
5:00 AM 28.4 °F - 26.6 °F 93% 30.00 in 1.5 mi Calm Calm - 0.00 in Snow Light Snow
5:21 AM 28.4 °F - 26.6 °F 93% 30.01 in 3.0 mi Calm Calm - 0.01 in Snow Light Snow
5:39 AM 28.4 °F - 26.6 °F 93% 30.00 in 9.0 mi Calm Calm - 0.01 in   Scattered Clouds
5:53 AM 26.1 °F - 25.0 °F 96% 30.03 in 10.0 mi Calm Calm - 0.01 in   Clear
6:53 AM 23.0 °F 18.4 °F 21.0 °F 92% 30.04 in 9.0 mi South 3.5 mph - 0.00 in Snow Light Snow
6:57 AM 23.0 °F 17.0 °F 21.2 °F 93% 30.02 in 0.2 mi SW 4.6 mph - 0.00 in Fog , Snow Light Snow
7:30 AM 23.0 °F 17.0 °F 21.2 °F 93% 30.03 in 10.0 mi South 4.6 mph - 0.00 in Snow Light Snow
7:53 AM 21.9 °F 14.5 °F 21.0 °F 96% 30.07 in 10.0 mi South 5.8 mph - 0.00 in   Partly Cloudy
8:53 AM 26.1 °F 19.4 °F 24.1 °F 92% 30.10 in 9.0 mi SSW 5.8 mph - N/A   Clear
9:53 AM 30.0 °F 26.5 °F 26.1 °F 85% 30.13 in 10.0 mi North 3.5 mph - N/A   Partly Cloudy
10:21 AM 30.2 °F 26.7 °F 28.4 °F 93% 30.12 in 0.4 mi North 3.5 mph - N/A Fog Light Freezing Fog
10:29 AM 28.4 °F 24.6 °F 28.4 °F 100% 30.12 in 0.2 mi NNW 3.5 mph - N/A Fog Light Freezing Fog
10:53 AM 28.9 °F - 28.0 °F 96% 30.16 in 0.2 mi Calm Calm - N/A Fog Light Freezing Fog
11:23 AM 30.2 °F - 28.4 °F 93% 30.12 in 10.0 mi Calm Calm - N/A   Scattered Clouds
11:30 AM 30.2 °F - 28.4 °F 93% 30.11 in 10.0 mi Calm Calm - N/A   Scattered Clouds
11:53 AM 32.0 °F - 28.9 °F 88% 30.13 in 10.0 mi Calm Calm - N/A   Scattered Clouds
12:53 PM 36.0 °F - 26.1 °F 67% 30.09 in 10.0 mi Calm Calm - N/A   Scattered Clouds
1:53 PM 37.9 °F - 24.1 °F 57% 30.07 in 10.0 mi Calm Calm - N/A   Partly Cloudy
2:53 PM 39.9 °F - 24.1 °F 53% 30.06 in 10.0 mi Calm Calm - N/A   Partly Cloudy
3:53 PM 39.0 °F 36.8 °F 26.1 °F 60% 30.06 in 10.0 mi NW 3.5 mph - N/A   Mostly Cloudy
4:53 PM 37.0 °F 33.3 °F 28.0 °F 70% 30.07 in 10.0 mi NNE 4.6 mph - N/A   Partly Cloudy
5:53 PM 34.0 °F - 28.9 °F 82% 30.11 in 10.0 mi Calm Calm - N/A   Scattered Clouds
6:53 PM 33.1 °F - 28.0 °F 82% 30.13 in 10.0 mi Calm Calm - N/A   Mostly Cloudy
7:53 PM 30.9 °F 26.2 °F 28.0 °F 89% 30.16 in 9.0 mi West 4.6 mph - 0.00 in   Clear
8:53 PM 33.1 °F - 28.9 °F 85% 30.17 in 9.0 mi Calm Calm - 0.00 in   Overcast
9:53 PM 33.1 °F 30.0 °F 28.9 °F 85% 30.14 in 10.0 mi ESE 3.5 mph - 0.00 in   Overcast
11:53 PM 35.1 °F 31.0 °F 28.9 °F 78% 30.13 in 9.0 mi SSE 4.6 mph - 0.00 in Snow Light Snow